FALCON 9 DEB (53511 NORAD) Tracking and Keplerian Element Data

This shows tracking and keplerian element data for the satellite.

Feedback or suggestion? Click here.




ElementValue
Catalog53511
NameFALCON 9 DEB
Epoch Orbit722
Epoch Day270.21575703
Epoch Year2022
RAAN33.456
Inclination97.6674
Eccentricity0.0001598
Argument of Perigee305.4231
Mean Anonmoly54.6902
Mean Motion16.09467549
Decay Rate0.00822108
L11 53511U 22099AY 22270.21575703 .00822108 37670-3 92254-3 0 9992
L22 53511 97.6674 33.4560 0001598 305.4231 54.6902 16.09467549 7226



Live tracking and technical data element details for FALCON 9 DEB (NORAD 53511). FALCON 9 DEB can be tracked NOW for your location showing map with azimuth and elevation plus other details from your city location.







IsCatalogInMostPopularTable: catalog: 53511, numindb: 4
Update: records affected: 1



GetName: 53511 FALCON 9 DEB

Hit Count: updated at: Tue, 29 Nov 2022 00:05:24 GMT